Location: ????????
(54.6123°N, 39.2099°E)
Time: 18:11:22
(UTC+00:00)

ERS-1 Rocket - Pass Details

Date: 19 May 2025
Orbit: 747 x 753 km, 98.2° (Epoch: 21 June)

Event Time Altitude Azimuth Distance (km) Brightness Sun altitude
Exits shadow 18:25:02 -1° 180° (S) 3,252 5.8 -6.6°
Rises 18:25:11 0° 180° (S) 3,194 5.8 -6.7°
Reaches altitude 10° 18:27:33 10° 186° (S) 2,274 5.1 -6.9°
Maximum altitude 18:32:23 48° 261° (W) 987 3.9 -7.3°
Drops below altitude 10° 18:37:16 10° 336° (NNW) 2,290 7.0 -7.8°
Sets 18:39:39 0° 342° (NNW) 3,219 7.8 -8.0°
